Wind_Speed
28 28 28 28 29 30 30 31 32 34 35 36 38 40 44 46 47 47 46 44 40 37 35 35 34 35 36 37 37 39 39 39 40 40 40 41 40 40 40 37 34 34 36 39 40 41 41 40 39 37 34 33 33 32 34 36 37 35 35 36 36 36 34 34 34 33 34 36 36 36 35 35 34 35 36 36 35 34 33 32 32 32 31 30 29
26 26 27 27 29 29 29 29 29 31 32 33 35 36 39 43 46 48 48 47 44 41 39 39 38 36 36 37 37 39 40 40 41 40 40 40 39 40 41 39 38 37 37 38 40 40 42 43 42 38 33 33 33 33 33 36 38 37 36 36 37 36 35 35 36 34 35 36 36 36 37 37 37 38 38 38 37 36 34 33 33 32 32 31 31
25 24 25 25 27 27 27 26 26 26 27 29 30 32 34 37 42 45 48 49 47 44 42 41 42 39 37 36 36 38 40 41 41 42 43 42 41 42 42 42 42 41 40 40 41 42 43 45 44 40 34 34 35 35 35 35 36 38 37 37 36 36 36 36 36 34 35 36 37 38 39 38 39 40 40 39 38 37 35 35 35 33 33 32 32
23 23 23 23 23 23 22 21 21 22 22 23 24 26 28 31 35 39 43 46 47 45 44 44 44 43 40 38 38 38 38 39 40 41 43 42 41 42 41 41 42 42 41 42 43 43 45 46 45 41 35 34 36 38 37 35 35 35 37 37 37 36 36 36 34 34 36 39 40 41 40 40 42 42 40 39 39 38 37 36 36 35 34 33 33
21 21 21 21 20 19 18 18 17 17 17 18 19 19 21 23 28 31 35 39 42 44 44 45 45 43 42 42 42 41 40 39 39 39 40 41 41 42 41 41 42 42 40 41 43 43 44 44 43 40 35 34 37 39 38 37 36 35 35 37 38 37 36 35 35 35 38 41 42 43 42 43 43 41 40 41 41 39 38 37 37 36 35 34 33
20 19 19 19 18 17 16 15 14 14 14 14 14 15 15 16 18 23 27 31 35 40 43 44 44 41 41 43 44 44 44 43 41 39 39 41 41 40 41 41 42 42 40 40 41 42 44 44 43 41 37 35 38 40 40 40 40 39 37 37 38 39 38 38 37 36 38 42 44 44 44 44 43 42 42 43 42 40 39 39 38 37 36 35 34
20 19 19 18 17 16 14 13 13 12 12 12 12 12 12 12 13 14 17 21 26 32 38 43 44 41 39 42 45 46 46 46 46 44 42 43 43 41 42 42 41 41 40 39 39 39 42 45 44 43 41 38 38 41 43 43 43 43 41 39 38 39 41 41 39 37 39 42 45 45 45 46 45 45 44 43 42 41 40 40 39 38 37 36 34
20 19 18 17 15 15 14 14 14 13 13 12 12 12 12 12 12 11 12 13 16 21 27 34 41 44 41 40 42 45 46 46 47 48 47 46 46 44 44 45 44 43 42 39 38 39 41 44 46 46 45 42 40 42 44 44 44 44 43 41 39 40 42 42 41 39 39 41 44 46 46 47 48 47 46 44 43 42 41 40 39 38 37 37 35
19 19 17 16 15 14 14 14 14 14 14 14 14 14 14 13 13 13 13 13 14 15 17 21 29 38 42 41 41 43 45 46 47 49 50 50 49 48 47 47 47 46 45 42 40 41 42 43 46 48 49 48 45 44 44 46 47 45 44 43 39 38 40 41 42 41 39 40 43 46 47 48 49 49 48 47 46 45 43 41 39 38 38 37 35
17 17 16 16 15 15 15 14 14 14 14 15 15 15 16 17 17 16 16 16 16 16 16 16 18 24 33 40 43 43 43 43 45 47 50 51 51 51 51 50 49 47 46 44 44 44 43 41 42 44 46 48 49 48 46 48 50 47 45 43 40 38 38 39 41 41 40 39 42 46 49 50 51 51 51 49 48 47 45 43 41 40 39 37 36
15 15 15 15 15 15 16 15 15 14 14 15 16 16 17 17 18 18 19 19 19 19 18 18 18 19 22 28 36 41 43 44 44 44 45 48 50 50 52 53 52 51 49 46 46 46 46 44 40 40 41 42 46 50 48 47 49 49 47 45 43 41 39 39 40 42 41 40 41 45 49 51 52 52 51 49 48 47 46 45 43 42 41 40 40
14 15 16 16 16 16 17 18 17 17 17 17 17 18 19 20 20 20 20 20 21 21 22 22 22 21 21 22 25 31 38 43 45 45 43 44 46 47 49 50 51 52 54 52 49 47 46 46 43 42 43 41 41 44 46 46 47 49 49 50 48 44 41 40 42 43 44 43 41 43 46 50 52 53 51 50 49 49 48 46 45 43 43 42 42
15 16 17 18 18 18 19 22 23 24 24 24 23 22 22 22 23 24 25 25 25 24 25 25 26 26 25 25 24 25 28 33 39 44 46 46 46 45 45 48 50 52 55 57 55 51 47 46 45 44 45 45 42 42 42 42 44 47 50 51 51 48 44 44 45 45 45 45 42 41 44 48 52 53 52 51 51 51 51 50 49 47 46 45 44
17 18 20 22 23 22 22 23 26 28 31 32 33 32 31 29 27 26 26 27 29 29 29 29 29 30 30 30 30 29 28 29 31 35 41 46 49 50 50 50 52 53 55 58 59 57 54 50 47 46 47 48 47 46 46 44 44 47 50 51 53 53 49 46 48 49 48 47 45 42 43 46 49 52 53 53 52 52 53 53 52 51 49 48 48
20 22 23 25 27 29 28 28 28 30 32 34 36 38 39 39 38 35 30 27 26 27 29 30 31 32 33 34 34 34 33 33 32 32 34 38 43 48 51 52 51 50 50 52 55 58 59 56 52 49 48 49 50 50 50 51 49 49 50 51 53 57 54 50 50 51 51 49 46 44 43 44 46 49 52 53 54 53 53 53 54 54 53 52 51
26 27 28 29 30 32 34 34 34 33 33 33 34 36 39 41 43 43 41 37 32 26 24 24 26 29 31 33 35 36 37 37 37 37 36 35 36 39 43 48 51 53 52 50 50 52 55 58 59 56 53 50 50 50 51 53 54 54 53 52 52 55 57 55 51 50 52 51 48 46 45 45 45 46 49 51 53 54 53 54 55 56 56 55 53
30 32 34 35 36 37 38 40 41 39 37 36 35 35 35 37 38 40 42 43 43 39 32 26 23 23 25 28 31 34 37 38 38 39 40 39 38 37 38 40 44 49 53 54 54 53 52 53 56 59 60 57 53 50 51 52 55 57 57 56 53 52 55 57 55 54 53 53 51 50 49 48 46 46 47 49 51 53 54 55 56 58 58 57 56
31 33 36 39 42 42 43 45 47 47 46 44 42 39 37 36 35 35 36 38 40 41 41 37 30 26 25 25 27 29 33 36 37 39 41 41 41 40 40 39 39 41 44 48 52 55 56 56 55 55 58 61 60 56 55 54 53 55 57 57 55 51 52 56 57 58 58 57 55 52 51 52 50 48 48 48 49 51 53 54 56 58 60 60 59
34 36 37 39 41 45 46 47 49 52 53 51 50 47 44 41 38 36 36 36 36 36 38 39 37 33 29 28 29 30 30 32 35 37 39 42 43 43 42 42 41 41 40 41 43 47 51 55 58 58 56 58 59 60 60 60 57 56 56 57 57 54 52 53 54 56 60 62 60 56 54 54 53 51 50 49 49 50 52 53 55 58 60 61 60
38 40 42 41 40 43 47 49 50 53 55 55 54 52 51 48 45 42 41 39 38 37 37 37 38 38 36 33 32 33 34 34 34 35 37 40 42 45 45 44 43 43 42 41 41 42 43 46 50 55 58 58 59 59 60 63 63 62 59 58 59 58 56 54 52 53 56 61 64 63 59 56 54 53 52 51 50 50 51 53 55 57 59 61 61
39 42 44 45 45 46 48 50 51 51 52 54 54 55 56 55 52 49 48 46 44 44 43 42 42 42 42 41 38 36 37 37 37 36 37 38 40 42 45 46 46 45 44 43 43 43 43 43 43 45 49 53 57 59 60 62 64 65 64 61 61 61 60 57 53 52 54 57 60 63 64 61 58 55 54 52 52 52 52 53 54 56 58 60 62
40 42 44 48 51 51 49 49 48 44 44 48 51 53 55 57 57 55 54 53 52 51 50 50 50 49 49 49 47 45 43 43 41 40 39 39 39 40 42 45 47 47 46 45 45 45 44 44 44 43 43 44 48 52 56 60 63 64 65 65 63 63 63 61 57 54 54 56 58 60 63 63 62 61 59 55 54 54 53 54 55 56 57 59 61
42 44 46 50 53 53 52 50 46 42 42 46 49 50 51 53 54 55 56 55 54 55 55 55 55 56 56 56 55 54 52 51 49 45 42 42 41 40 40 42 45 47 48 47 46 46 47 46 45 45 45 44 44 45 47 52 57 61 64 66 65 63 63 63 62 59 57 57 58 60 62 63 63 64 65 62 59 56 55 55 55 56 56 57 58
45 48 51 53 54 55 54 50 46 44 44 46 47 47 47 49 50 51 53 54 55 55 56 56 57 58 59 60 60 59 58 57 56 52 48 45 44 43 41 41 42 45 47 49 48 47 47 48 48 47 46 46 46 45 45 45 48 52 57 62 64 64 63 62 62 62 60 58 57 58 61 62 63 64 66 66 64 61 58 57 56 56 55 56 57
47 51 54 55 56 55 52 48 46 44 44 44 44 44 44 45 46 47 49 51 52 52 53 54 55 56 58 60 61 62 61 59 58 57 54 50 47 45 44 42 42 42 44 47 49 49 48 48 48 49 48 47 47 47 47 46 46 46 49 52 57 60 61 61 61 61 62 60 57 56 57 59 61 63 65 67 68 67 65 62 61 60 58 57 57
50 54 55 53 52 50 46 44 43 42 40 40 41 42 42 42 43 44 45 45 46 47 48 49 50 51 53 55 57 59 60 59 58 56 55 53 50 48 47 45 43 43 43 44 47 49 50 49 48 48 49 50 49 48 48 48 47 48 48 48 50 52 55 57 58 59 60 60 59 57 56 57 58 61 63 65 66 68 69 69 68 66 63 60 58
53 53 50 47 45 44 41 39 41 41 40 40 41 42 42 42 42 43 43 43 42 44 47 47 47 48 49 50 52 53 55 56 55 53 53 53 51 50 49 48 45 44 44 44 45 46 49 50 50 49 49 49 50 50 50 50 49 49 49 50 50 51 51 52 53 54 55 57 58 58 57 58 58 59 61 62 62 64 67 69 70 69 67 65 62
52 46 43 42 41 41 40 41 42 42 40 40 40 41 41 42 43 45 46 45 43 45 48 48 48 47 48 48 49 50 51 52 51 50 50 51 50 49 50 50 48 47 45 45 45 45 46 48 50 51 50 49 49 49 50 51 51 51 51 51 51 51 52 52 53 52 52 52 53 54 56 57 59 60 61 61 61 61 62 64 66 67 67 66 65
45 41 40 41 42 43 43 44 43 42 41 40 40 40 41 42 42 44 45 46 46 48 50 50 50 50 50 50 52 52 52 51 50 49 48 49 50 48 49 50 49 48 48 46 45 45 45 46 47 50 51 51 50 49 49 50 52 52 53 52 53 53 53 53 53 54 54 53 52 52 53 54 56 59 61 62 61 60 60 61 62 64 65 66 66
39 40 41 43 45 45 45 44 44 43 43 42 41 40 41 41 42 43 44 45 46 49 51 52 53 54 54 54 54 55 55 54 53 51 49 49 49 48 48 48 48 48 49 48 47 45 45 46 46 47 49 51 52 51 50 49 50 51 52 53 53 54 54 54 54 54 54 54 55 55 54 53 53 55 58 60 62 62 61 61 62 62 64 65 66
39 41 44 46 45 44 44 44 45 45 45 44 44 44 43 42 42 44 45 46 48 50 53 55 57 57 56 56 56 56 57 57 55 53 51 49 48 48 48 47 47 47 48 48 48 47 45 45 45 45 46 48 50 51 51 51 50 50 51 52 53 53 54 55 56 56 55 54 55 55 56 56 55 55 55 57 60 62 63 63 63 63 64 64 65
43 45 47 47 45 45 45 45 44 45 46 47 47 46 46 45 46 48 50 52 54 56 59 60 60 60 59 58 57 57 57 56 55 53 52 50 48 47 47 46 45 45 46 46 47 47 46 45 45 45 45 46 47 49 51 52 51 51 50 51 51 52 53 54 55 56 57 57 56 56 56 57 57 57 56 56 57 59 62 63 64 64 64 65 66
46 48 48 47 46 46 46 46 46 46 47 48 48 48 49 50 51 53 56 59 61 62 64 65 65 64 62 60 58 56 55 54 53 52 50 48 46 46 46 45 43 43 43 44 44 45 45 45 44 44 44 45 45 47 49 51 52 51 51 50 50 51 51 52 53 54 55 56 57 58 57 57 57 57 57 57 57 57 59 61 63 63 64 65 66
49 50 49 48 48 47 47 47 47 47 49 50 51 52 54 56 58 61 64 66 67 68 68 68 67 65 62 59 56 53 50 50 50 50 48 45 43 44 44 43 41 40 41 41 42 42 42 43 43 43 44 44 44 46 48 50 51 52 52 52 52 51 51 51 52 52 53 54 55 57 58 59 58 57 56 56 56 57 58 60 61 62 64 65 66
52 52 52 51 50 50 51 51 51 52 54 55 57 60 62 64 66 67 66 66 66 66 65 63 61 59 56 53 51 48 46 45 46 46 46 44 42 41 41 40 39 38 38 39 39 39 39 39 40 41 42 43 43 44 46 48 50 51 53 53 53 53 53 53 52 52 52 52 53 55 56 58 59 59 58 56 56 56 58 60 61 62 63 64 65
53 53 52 51 51 52 54 56 58 60 61 60 60 62 63 64 63 61 59 57 56 56 55 53 52 51 49 46 45 43 41 41 41 42 44 43 41 39 38 38 37 36 36 36 36 36 37 36 36 37 39 40 41 41 43 45 46 48 50 52 53 53 54 54 54 53 52 52 52 53 54 56 58 59 59 58 57 56 57 59 61 61 62 63 64
52 52 51 53 54 54 56 59 62 64 62 57 55 54 54 54 53 51 51 50 48 47 47 46 45 45 43 42 40 39 38 38 39 41 41 40 39 37 36 36 35 33 33 33 33 33 33 33 33 33 34 36 37 37 39 41 42 44 46 48 49 51 52 52 53 53 53 52 51 51 52 53 55 57 59 58 57 57 57 59 60 61 61 62 62
51 51 52 55 56 56 58 60 63 63 58 55 53 51 49 49 48 46 46 45 44 43 42 42 41 40 39 38 37 37 37 38 39 39 39 37 36 35 34 32 31 30 29 29 29 30 30 30 31 31 31 32 33 34 35 37 39 40 42 44 45 47 48 49 50 51 51 51 50 49 49 51 53 55 56 57 56 56 57 58 58 59 60 60 60
49 50 52 55 56 58 57 56 57 56 54 52 52 49 48 47 46 44 43 42 41 40 39 38 37 36 36 36 36 37 37 38 38 37 35 33 32 31 29 27 26 26 26 25 26 27 27 28 29 29 30 31 32 32 33 35 36 38 39 41 42 44 45 46 47 47 48 48 48 47 47 49 51 53 54 54 54 55 55 56 56 57 58 59 59
49 50 52 54 55 56 55 53 51 51 49 49 48 47 45 44 42 41 40 39 37 36 35 34 34 34 34 35 35 36 36 35 34 32 30 28 26 24 22 21 21 22 23 23 24 25 26 26 27 28 29 30 31 32 32 34 35 36 38 39 40 41 42 43 44 45 45 45 45 44 45 47 49 51 52 52 52 52 53 53 53 54 56 57 57
50 50 51 52 52 51 51 49 48 47 46 44 44 43 42 41 40 38 37 35 35 34 33 33 33 33 32 32 31 30 30 28 27 25 23 21 19 18 18 17 19 20 21 22 22 23 25 25 26 27 29 29 31 31 32 33 34 35 36 37 39 40 41 41 42 43 44 44 43 43 43 45 47 49 50 50 49 49 50 50 50 50 51 53 55
49 48 49 50 50 48 47 46 45 44 43 42 41 40 39 39 38 36 34 33 33 32 32 32 31 30 28 27 25 24 24 23 21 21 19 17 17 17 17 18 18 19 20 21 22 23 24 24 25 26 27 28 29 30 31 31 32 34 35 36 37 39 39 40 40 41 42 43 43 43 43 45 46 47 48 48 47 47 48 48 47 47 48 50 53
48 48 47 47 48 47 46 44 43 42 41 40 39 38 37 37 35 33 33 32 32 31 31 29 28 27 25 24 23 22 22 22 21 20 20 18 18 18 18 18 19 20 20 20 21 22 23 23 23 24 26 26 27 28 29 30 30 32 33 33 35 37 38 37 38 39 40 40 41 41 42 43 45 45 45 45 44 45 46 47 45 45 47 49 50
47 46 45 45 45 44 43 42 40 40 39 38 38 37 36 34 33 32 32 31 31 30 29 27 26 26 25 24 23 22 22 22 22 22 21 20 19 19 18 18 19 20 20 20 21 22 22 22 22 23 24 24 25 25 26 28 28 29 30 31 32 33 35 35 35 36 37 37 37 37 38 39 41 41 41 41 41 42 45 45 44 44 45 45 46
45 45 44 44 43 43 42 41 39 38 37 37 36 36 35 33 32 31 31 31 30 28 27 26 25 25 25 24 23 23 22 22 22 22 21 21 20 19 18 18 18 19 19 20 20 21 21 22 22 22 22 23 23 24 24 25 26 27 28 28 29 31 32 33 33 33 33 33 32 32 32 34 34 34 35 37 38 40 42 43 44 44 43 42 41
45 44 43 43 43 43 42 41 39 37 36 35 34 34 34 33 31 31 30 30 29 28 26 25 25 25 25 24 24 23 22 22 22 21 21 21 20 19 19 18 18 18 18 19 19 19 20 21 21 21 21 21 22 22 23 23 24 25 26 26 27 28 30 32 32 31 30 29 28 27 27 29 30 31 32 34 35 37 38 40 42 42 42 41 40
44 43 43 43 43 42 41 40 39 37 35 34 33 32 32 32 31 30 29 29 28 27 26 24 24 25 25 24 24 23 21 21 21 20 20 20 19 19 18 18 17 17 17 18 18 18 19 20 20 19 19 20 20 21 21 22 22 23 23 23 24 26 28 30 31 29 26 25 25 24 24 25 27 29 31 32 32 33 34 37 39 39 40 40 40
43 43 42 42 41 41 40 39 38 37 35 33 32 31 31 30 30 29 29 28 28 27 26 25 24 25 24 24 23 22 21 20 20 19 19 19 18 18 17 17 17 17 17 17 17 18 18 19 18 18 18 19 19 20 20 20 21 22 22 22 22 23 25 27 28 26 24 23 24 23 23 24 25 27 29 29 29 30 31 34 35 36 36 37 38
43 42 41 41 40 40 39 37 37 36 35 33 31 30 30 29 29 28 28 28 28 27 26 25 24 24 24 24 23 22 22 20 19 18 18 17 17 17 16 15 16 16 16 16 16 16 17 18 18 18 18 17 17 18 19 19 21 22 22 21 21 21 22 23 24 23 21 21 22 23 23 23 24 25 26 26 27 28 29 31 33 34 34 35 36
42 41 41 40 39 38 37 37 36 35 34 32 31 30 29 29 28 27 27 27 27 27 26 25 24 24 23 23 22 22 21 20 19 18 17 16 16 17 17 16 14 15 15 15 15 15 15 16 16 16 16 17 16 17 18 19 21 22 23 22 22 21 21 21 22 22 21 20 20 21 21 21 22 23 23 24 24 25 26 28 29 31 32 32 33
42 41 41 40 38 37 36 35 35 34 33 32 31 30 29 29 28 28 27 27 27 27 26 25 24 23 22 22 22 21 20 20 19 19 17 16 14 15 17 17 16 14 14 14 14 14 14 15 15 15 15 15 16 15 16 18 21 22 24 24 24 23 23 22 22 23 22 21 20 20 19 20 20 21 22 23 23 24 24 25 26 27 29 30 31
Wind_Direction
279 276 273 271 271 275 276 275 271 265 259 256 253 249 245 244 244 245 246 246 245 243 243 246 248 250 252 249 243 240 241 244 245 246 246 246 249 249 249 253 255 258 262 262 261 263 267 270 271 269 267 266 266 267 264 260 256 252 250 250 250 251 251 251 249 243 235 232 232 232 234 234 232 232 233 234 235 236 237 239 239 240 241 242 241
277 276 276 277 278 280 280 277 272 267 263 259 255 251 247 245 243 243 245 245 245 243 241 242 243 243 247 252 249 244 241 242 243 244 245 246 248 248 248 250 253 254 256 256 254 257 264 269 271 268 263 263 265 268 267 264 261 256 251 250 250 251 250 250 249 244 238 236 235 235 236 235 233 233 234 235 236 237 238 239 240 240 241 242 242
274 276 278 280 281 281 279 276 271 268 265 262 259 255 251 247 244 243 243 244 244 243 240 239 241 240 239 244 248 247 244 241 241 242 242 245 248 251 251 250 252 251 248 248 252 257 264 268 269 265 263 264 266 268 269 269 267 262 257 253 251 251 250 249 248 245 240 238 236 237 238 237 236 235 235 236 237 238 239 240 241 241 241 242 242
272 275 278 279 278 277 275 274 271 268 265 263 261 258 255 251 248 245 244 243 243 242 240 238 241 242 239 237 239 244 246 242 241 242 242 244 246 251 253 253 256 255 249 247 250 255 261 265 265 262 262 265 266 267 268 271 271 267 263 259 254 252 251 251 250 246 242 239 238 239 238 237 237 236 236 237 238 238 239 240 241 241 240 241 242
271 273 276 275 273 272 270 269 268 267 265 263 262 260 258 254 251 249 247 245 243 242 240 240 243 244 241 238 237 239 241 240 241 243 246 248 247 249 253 253 255 257 254 251 251 254 257 259 259 258 259 261 262 263 264 268 270 267 263 261 258 255 253 252 250 246 243 241 240 239 239 239 240 239 238 238 239 239 240 240 241 241 240 241 242
272 272 272 270 268 268 269 269 270 269 268 265 264 263 261 259 255 252 250 248 246 244 241 241 243 244 242 240 239 239 239 237 236 240 245 246 246 247 250 250 251 254 255 254 253 254 256 253 252 254 256 256 257 259 262 264 266 266 265 263 260 257 254 252 250 247 244 242 240 239 240 242 243 242 240 241 241 241 241 242 242 242 242 241 242
274 275 272 268 266 267 269 270 274 275 276 276 274 274 273 271 269 264 259 255 252 248 245 242 240 241 243 242 242 241 241 239 236 236 238 240 241 242 243 244 248 252 252 251 250 252 253 252 251 252 254 255 255 257 259 262 264 265 264 262 260 258 255 253 253 250 246 245 243 240 240 242 242 241 241 242 243 243 244 244 244 243 243 242 242
272 274 272 270 270 271 273 276 279 280 282 283 281 282 284 284 285 285 282 275 267 260 254 248 242 240 242 243 244 243 243 243 242 240 239 239 239 239 239 240 244 246 247 247 247 249 251 250 250 251 251 251 253 255 257 260 262 260 258 259 258 256 255 255 256 254 251 250 247 243 241 242 243 242 241 242 243 243 243 243 243 243 243 243 243
268 270 272 274 276 277 279 281 283 286 287 287 287 287 288 291 293 295 298 298 295 287 276 265 253 245 242 242 244 246 247 246 246 245 244 243 242 241 240 241 243 244 244 244 245 248 250 249 248 250 249 248 249 252 255 258 257 252 252 255 256 256 256 256 257 256 255 253 250 246 243 242 244 244 242 241 241 242 243 244 244 244 245 245 246
266 272 277 282 286 288 288 287 284 284 285 287 290 293 296 298 299 299 299 299 299 299 296 290 278 261 250 245 245 247 249 249 249 248 247 246 246 245 244 244 245 244 242 242 243 245 247 246 246 249 250 249 248 249 251 255 253 247 248 253 254 254 254 255 256 257 257 255 252 249 245 243 243 244 244 243 243 243 244 245 245 246 247 247 247
268 274 278 282 289 296 299 300 300 297 293 291 288 289 291 294 297 299 300 300 299 298 297 296 294 287 272 259 252 249 248 249 250 251 250 248 247 247 247 248 248 247 245 243 244 245 245 244 244 246 248 249 249 248 247 250 250 248 247 249 250 250 250 253 254 255 255 254 252 251 248 247 246 247 249 248 248 247 246 246 247 247 247 247 246
274 277 279 279 281 287 293 296 300 303 303 303 302 299 296 292 292 294 295 298 299 298 297 295 292 290 287 280 268 259 254 251 250 251 252 252 250 249 248 248 249 248 246 244 246 248 246 244 244 245 245 245 246 246 246 247 248 250 249 247 246 246 246 249 251 252 254 253 252 251 251 250 249 250 250 250 250 250 249 248 247 246 246 246 246
291 292 292 292 289 291 296 297 297 298 300 302 305 307 308 306 303 299 297 295 295 295 295 294 292 289 286 284 281 275 268 261 256 253 253 253 254 255 255 255 255 253 249 245 245 249 249 245 245 247 247 246 246 247 247 246 245 247 250 249 246 243 242 244 249 252 254 254 252 250 250 250 250 250 250 250 250 250 250 249 247 246 246 246 246
310 312 311 311 308 305 306 309 309 306 305 305 306 306 308 310 311 310 307 303 299 296 294 292 291 290 287 284 281 279 276 272 267 262 257 255 254 255 257 258 257 256 253 250 248 249 249 247 246 248 249 249 248 249 249 249 247 246 249 251 246 242 239 239 244 250 250 250 250 248 247 247 248 249 250 250 250 250 250 251 250 249 248 247 247
319 320 321 322 321 317 313 314 316 316 314 312 311 310 310 311 311 312 313 312 308 303 299 295 291 289 288 285 282 279 276 274 272 269 265 261 258 256 255 254 254 253 252 252 251 251 251 249 248 249 250 250 249 249 248 249 250 248 248 250 248 244 240 237 240 245 246 246 247 248 248 246 246 247 248 249 250 250 250 251 252 251 250 249 248
326 324 324 324 326 325 320 317 316 318 319 317 315 313 312 312 313 313 314 314 314 312 309 304 297 291 286 283 281 279 276 274 272 271 268 265 263 260 258 256 255 254 253 252 252 252 252 251 249 249 250 251 249 248 247 246 249 250 248 248 248 247 245 241 239 241 244 245 246 247 248 247 245 245 246 247 249 250 250 250 251 251 251 250 250
331 330 329 328 328 330 328 323 320 318 318 317 317 315 313 313 312 312 313 312 312 312 312 313 311 306 296 286 279 276 274 273 270 269 269 268 266 263 261 259 258 256 255 254 253 253 253 252 251 249 250 251 250 250 249 245 245 248 248 248 249 250 249 244 241 240 241 243 244 245 246 247 247 245 245 245 246 248 248 249 250 251 252 252 251
331 332 334 332 330 331 330 328 325 321 320 318 317 316 313 313 311 310 309 308 308 308 307 308 310 313 314 307 295 283 275 272 270 268 267 267 268 266 263 261 259 258 257 256 255 253 253 253 253 251 249 249 250 251 252 249 246 246 247 247 249 252 251 247 243 241 241 241 242 243 244 246 246 246 246 245 246 246 246 247 249 251 252 252 252
326 326 329 330 329 329 328 328 326 323 321 318 317 316 313 311 310 308 307 305 304 303 303 304 305 306 310 315 315 308 294 281 273 269 266 265 266 267 266 262 260 259 258 258 257 255 254 254 253 253 252 250 249 249 250 250 249 247 247 246 246 250 253 249 245 244 243 242 242 241 242 244 245 245 246 246 247 247 247 246 247 248 251 252 253
321 321 323 324 325 326 326 325 324 322 320 318 316 315 313 311 309 307 304 302 300 299 299 300 301 302 302 304 310 313 312 302 288 276 269 264 264 265 266 265 263 260 258 257 257 257 256 255 253 253 253 252 251 250 250 250 250 249 248 246 245 248 253 252 249 247 245 244 243 241 241 242 243 244 245 246 247 248 249 248 247 247 248 251 252
323 324 324 324 325 327 327 326 325 323 320 318 317 317 315 312 310 308 306 303 301 299 298 298 299 300 300 300 300 302 307 308 303 292 280 270 264 262 263 264 264 262 260 257 256 256 256 256 254 253 253 253 253 252 250 250 250 250 249 247 245 247 251 253 251 249 247 247 246 244 242 241 240 241 243 244 245 246 248 249 249 248 248 248 250
325 325 326 325 325 326 327 326 325 323 317 314 315 316 315 312 310 309 308 306 304 302 300 300 301 302 301 301 300 299 300 301 303 300 292 281 271 264 261 261 262 263 262 259 257 255 255 254 254 253 253 253 252 252 251 249 249 248 249 249 248 247 250 252 252 250 247 247 247 248 247 245 242 241 241 242 243 244 246 248 250 250 249 249 249
321 321 322 322 322 322 322 322 321 317 311 309 310 311 311 310 310 309 307 306 305 304 302 301 300 301 302 302 301 300 300 299 299 298 295 289 281 273 265 260 259 260 262 262 259 256 254 254 253 252 252 252 252 251 251 250 249 248 248 248 249 250 250 250 251 251 250 248 248 248 248 249 249 247 244 243 242 243 244 247 249 251 251 251 250
314 316 317 317 317 317 316 317 316 312 309 307 307 307 308 308 309 309 308 308 307 306 305 304 302 302 302 301 300 299 299 299 298 297 295 290 285 279 273 266 261 258 258 260 261 259 256 254 253 252 252 251 251 250 250 250 250 250 249 248 249 250 250 250 250 250 251 252 251 249 248 249 251 251 249 246 243 241 241 243 245 247 250 251 252
314 315 315 315 314 314 313 312 311 310 309 307 305 306 307 307 308 308 308 310 310 309 309 308 306 305 303 301 299 298 297 297 296 295 294 291 286 280 276 272 267 262 257 256 258 260 259 256 254 253 252 251 251 251 250 250 249 249 250 249 249 250 250 250 250 249 250 251 251 250 249 248 249 249 250 249 246 241 239 239 240 242 245 247 250
315 315 315 315 313 312 311 308 308 308 307 306 305 305 307 307 306 306 307 309 310 310 310 310 309 308 305 303 300 298 296 294 293 292 290 288 284 280 276 273 270 267 263 258 256 257 258 259 257 254 253 252 252 251 251 250 250 249 249 249 249 250 251 251 251 250 249 249 249 248 247 247 247 247 247 249 248 245 242 241 241 243 244 244 245
316 316 315 314 311 309 307 306 308 309 307 307 308 309 310 309 307 306 306 306 306 307 308 309 309 308 307 305 303 300 297 293 291 288 285 283 280 277 275 273 270 268 266 263 259 256 256 257 258 257 255 253 252 252 252 251 251 251 250 249 249 249 250 251 252 252 251 250 250 249 247 246 246 247 247 247 248 248 247 245 244 245 245 243 243
316 316 312 310 308 305 303 305 308 309 308 309 310 310 309 308 307 305 304 302 301 302 304 306 306 305 305 306 305 302 299 295 292 287 282 278 276 273 272 271 269 268 266 264 262 259 256 255 255 257 257 256 254 252 252 252 252 251 251 251 251 251 250 250 250 251 252 252 251 250 249 248 247 247 248 248 248 249 249 248 247 246 244 243 243
314 311 307 308 308 305 303 304 306 306 305 304 305 306 306 305 305 304 303 302 301 301 302 302 303 303 304 304 304 302 300 298 294 290 284 278 273 270 269 268 268 267 265 264 262 260 259 256 253 254 255 257 257 255 253 252 252 252 252 251 251 251 251 251 251 251 251 252 252 252 251 250 249 248 249 249 250 250 250 250 249 248 245 243 242
309 307 308 309 308 306 304 304 304 303 302 301 301 302 303 303 303 302 302 301 301 302 302 301 301 302 302 303 302 300 299 297 295 291 287 281 275 270 267 266 265 265 264 264 263 261 259 258 255 253 252 253 255 256 256 253 252 252 252 252 252 251 251 251 251 252 251 252 252 253 252 252 252 251 250 250 250 251 252 252 251 250 249 246 243
302 305 309 310 308 306 304 304 303 302 300 298 297 297 297 297 297 297 298 298 298 299 300 299 300 300 300 300 299 298 296 295 293 290 287 284 278 273 269 265 264 263 262 262 263 261 260 258 257 255 252 251 252 253 256 256 254 253 252 252 252 252 252 252 251 251 252 252 252 253 253 252 252 252 252 251 250 250 250 251 251 251 251 249 247
301 306 310 311 309 307 305 304 302 299 297 296 295 294 294 294 294 295 296 297 297 298 298 299 299 299 298 298 297 296 294 292 291 289 287 285 281 277 272 267 264 262 261 260 260 261 260 259 257 256 254 252 250 251 253 254 255 255 254 253 252 252 252 252 252 252 251 251 252 252 252 252 252 252 252 252 251 250 249 250 250 251 251 250 249
305 309 311 310 308 306 305 304 302 299 297 296 294 294 294 295 295 296 297 297 296 296 296 296 296 296 297 297 296 294 292 291 289 288 286 285 281 278 274 269 266 263 261 260 259 259 259 259 258 256 254 252 251 250 250 251 253 254 255 255 254 254 253 252 252 252 252 252 252 252 252 252 252 252 252 252 252 252 251 250 250 251 251 251 250
308 309 309 307 306 305 304 303 301 299 297 295 295 295 295 295 296 296 297 296 295 294 294 294 294 295 295 295 294 293 292 290 289 288 287 284 280 277 274 272 269 266 263 260 259 258 258 257 257 256 255 253 251 250 249 249 250 252 253 255 255 255 255 254 254 253 253 253 252 252 252 252 252 253 252 252 251 252 252 251 251 251 251 251 251
309 309 306 304 304 304 302 301 300 298 297 296 296 295 294 294 295 295 296 295 294 294 294 294 294 294 295 294 293 292 290 288 287 288 288 285 281 278 275 274 272 268 264 261 260 259 257 256 255 254 254 253 252 250 249 249 249 250 251 252 253 254 255 256 256 255 254 253 253 252 252 251 251 252 252 252 251 251 251 251 250 250 251 251 252
309 308 304 302 302 302 301 301 301 300 300 299 298 296 295 295 295 296 296 295 295 295 295 295 295 295 295 295 293 292 290 288 287 287 285 283 282 279 277 276 273 269 266 263 261 259 258 256 254 253 253 253 252 252 251 251 250 250 250 251 251 252 254 255 256 257 257 256 254 253 252 252 251 251 251 252 252 251 250 250 249 249 250 251 251
310 307 302 299 299 299 301 302 302 302 303 305 304 301 299 299 299 299 298 298 298 297 297 296 296 295 296 295 293 292 290 289 287 284 282 282 282 281 279 277 274 269 266 263 260 258 257 255 254 252 252 252 252 252 253 253 252 252 252 251 251 252 252 253 254 256 257 257 257 255 254 253 251 250 250 250 251 251 251 250 249 249 249 250 251
309 306 302 300 300 301 302 303 303 304 307 308 308 307 307 306 306 305 303 302 302 300 299 298 297 297 297 295 294 293 292 290 288 285 284 284 283 282 280 278 274 268 263 260 258 256 255 255 255 254 253 252 252 251 252 253 253 253 253 253 253 253 253 253 254 254 256 257 258 257 256 254 253 251 249 249 249 249 250 251 250 249 249 250 250
309 306 304 303 304 304 305 306 307 308 310 309 309 311 310 308 309 308 307 306 306 304 303 302 301 300 299 298 297 296 294 292 290 288 287 286 283 281 279 275 270 265 262 258 256 255 255 255 256 257 257 256 255 253 252 252 253 254 254 254 255 255 255 255 255 255 255 256 257 258 257 255 254 253 250 249 248 248 249 250 251 251 250 251 251
311 310 308 308 307 308 311 313 312 311 311 311 310 311 310 310 311 312 311 310 309 308 307 306 304 303 302 300 299 297 295 293 291 290 289 288 285 281 276 272 268 265 263 260 259 258 258 258 259 259 259 259 259 258 256 255 255 255 255 255 255 254 255 255 255 256 256 256 256 257 256 255 255 254 252 251 249 248 248 249 250 251 251 252 253
314 314 313 312 313 314 315 315 314 313 313 312 311 312 312 313 313 313 313 312 312 311 310 309 308 307 305 303 301 299 297 296 294 293 292 291 288 283 279 274 271 268 267 265 265 264 263 262 262 262 262 261 261 261 260 259 258 257 257 257 256 255 255 254 254 254 255 255 255 255 255 254 254 254 254 252 250 250 249 249 249 250 251 252 252
318 317 317 316 317 318 317 316 316 316 315 314 314 314 314 314 315 315 315 314 314 313 313 312 312 310 308 307 307 305 303 302 300 299 297 295 291 287 284 281 276 273 272 271 270 268 267 266 264 263 264 263 263 263 263 262 261 260 259 260 259 258 256 255 254 254 253 254 254 254 254 254 253 254 254 253 252 251 251 250 249 249 248 248 248
320 320 321 320 319 319 319 319 319 317 316 316 315 315 315 315 316 316 316 315 314 314 314 314 313 312 310 310 309 308 306 304 302 301 299 297 293 289 286 285 281 279 277 275 273 271 269 267 266 265 265 264 263 264 263 263 262 261 260 260 260 260 259 257 256 255 254 254 255 255 256 255 254 253 253 252 252 252 253 252 248 245 243 243 243
321 322 322 321 320 321 321 321 321 320 319 319 317 316 317 317 317 317 316 315 314 313 313 314 313 312 311 310 309 308 306 304 303 302 300 298 295 291 288 286 283 281 279 276 274 272 271 269 267 266 265 265 264 263 263 263 263 262 261 260 260 260 260 258 257 256 256 256 257 258 258 257 256 256 255 253 252 251 253 252 247 241 239 238 238
322 322 322 322 322 324 324 324 324 323 321 320 318 317 317 318 318 317 315 314 313 312 312 313 312 311 310 310 309 308 307 306 304 302 301 299 296 293 291 288 285 282 280 278 276 273 272 271 269 268 266 266 264 263 262 262 261 261 260 260 259 259 259 259 258 256 256 257 259 259 259 257 257 257 257 256 254 252 252 251 247 242 239 236 234
323 323 323 324 325 326 326 326 327 325 323 321 320 318 318 318 318 317 315 313 312 310 311 312 312 312 311 311 310 310 309 307 305 303 302 300 297 295 293 291 288 285 282 280 278 276 274 273 271 270 268 266 264 262 261 260 260 260 259 259 258 258 258 258 256 255 255 257 258 259 259 257 256 256 257 257 255 253 252 250 248 246 242 238 235
323 324 324 325 326 326 326 327 327 326 325 323 322 320 319 319 318 317 315 313 311 309 310 312 312 312 311 311 310 310 308 307 305 303 302 300 298 297 295 293 290 287 285 283 281 279 278 275 273 271 269 266 263 261 260 260 260 260 258 257 256 255 256 257 256 254 252 253 255 255 256 257 257 257 256 256 254 252 250 249 248 248 245 241 237
323 324 324 325 325 325 326 326 327 327 327 326 324 322 320 320 319 318 316 314 312 310 310 312 312 312 311 310 310 308 307 306 304 303 302 300 298 297 296 295 293 289 287 285 283 282 280 278 276 273 269 266 264 262 261 261 260 260 258 256 255 254 255 257 258 256 252 250 250 251 253 256 258 258 256 255 252 249 247 247 248 247 245 242 239
323 323 323 324 324 324 324 325 326 327 328 327 326 324 322 321 321 320 319 316 314 312 312 313 313 311 309 309 308 307 306 305 303 302 301 300 299 297 296 295 294 292 290 287 285 285 283 281 280 277 273 270 266 263 262 261 260 260 260 258 257 257 257 259 261 260 255 250 248 249 251 253 256 256 255 253 249 245 244 245 246 246 244 242 240
323 322 323 323 322 322 322 323 325 327 327 328 328 326 324 323 323 323 322 320 317 316 315 315 314 312 310 308 306 305 304 303 302 300 299 299 299 299 297 295 293 292 292 290 288 286 285 284 283 281 279 277 271 266 263 261 259 260 260 259 259 259 260 261 263 263 260 256 252 251 251 251 252 252 251 250 246 242 240 241 244 245 244 242 241
323 322 322 321 321 321 322 323 324 325 326 327 327 326 326 325 324 324 324 322 320 318 318 318 317 314 311 308 306 304 303 302 301 300 298 296 295 295 296 296 294 292 291 291 290 288 286 285 284 283 282 281 278 274 269 264 261 261 261 260 259 258 258 259 261 263 263 262 258 254 251 250 249 249 248 247 245 242 239 237 239 242 244 243 242
Height
3035 3034 3033 3033 3032 3032 3032 3031 3030 3030 3030 3030 3030 3031 3031 3032 3032 3033 3033 3034 3036 3037 3037 3038 3039 3040 3040 3041 3041 3042 3044 3045 3047 3048 3049 3050 3052 3053 3054 3055 3055 3055 3057 3058 3058 3058 3059 3060 3061 3062 3064 3065 3066 3067 3068 3068 3069 3072 3073 3074 3075 3076 3077 3078 3079 3082 3084 3085 3087 3089 3090 3092 3094 3095 3095 3097 3098 3100 3101 3103 3104 3104 3105 3107 3108
3031 3031 3030 3029 3028 3028 3027 3027 3026 3026 3025 3025 3025 3026 3026 3027 3027 3028 3028 3029 3031 3032 3033 3033 3033 3035 3036 3037 3038 3039 3039 3041 3042 3044 3045 3046 3048 3048 3049 3051 3051 3052 3053 3054 3055 3054 3055 3055 3056 3058 3060 3061 3062 3063 3064 3064 3065 3067 3069 3070 3071 3073 3074 3074 3075 3078 3080 3082 3084 3086 3086 3088 3090 3091 3091 3093 3095 3096 3098 3099 3100 3101 3102 3103 3104
3028 3027 3026 3026 3025 3024 3023 3023 3022 3022 3022 3021 3021 3021 3021 3022 3023 3023 3023 3024 3026 3027 3028 3029 3028 3030 3032 3032 3034 3034 3035 3036 3038 3039 3040 3041 3042 3043 3045 3046 3047 3047 3049 3050 3051 3051 3051 3051 3052 3054 3056 3057 3057 3058 3059 3060 3061 3063 3065 3067 3068 3069 3070 3070 3072 3075 3078 3079 3081 3081 3082 3084 3086 3086 3087 3090 3092 3093 3095 3095 3096 3098 3099 3100 3101
3025 3024 3023 3023 3022 3021 3020 3020 3019 3019 3018 3018 3017 3017 3017 3018 3018 3018 3019 3019 3021 3022 3023 3024 3024 3026 3027 3028 3028 3030 3030 3032 3033 3033 3034 3035 3036 3038 3040 3042 3043 3044 3045 3046 3047 3047 3047 3047 3048 3050 3052 3052 3053 3054 3055 3056 3058 3059 3061 3063 3064 3065 3066 3067 3069 3072 3074 3075 3075 3076 3079 3080 3079 3081 3084 3087 3088 3089 3090 3092 3093 3094 3095 3096 3097
3022 3022 3021 3021 3020 3019 3018 3017 3017 3016 3015 3015 3014 3014 3014 3014 3014 3014 3015 3015 3016 3017 3018 3019 3019 3021 3023 3023 3023 3024 3025 3027 3029 3029 3030 3031 3033 3035 3036 3037 3039 3040 3041 3042 3043 3043 3043 3043 3043 3045 3047 3048 3049 3050 3051 3052 3054 3055 3056 3058 3059 3061 3062 3063 3065 3068 3069 3070 3071 3072 3074 3074 3075 3079 3082 3082 3083 3085 3086 3088 3089 3090 3091 3093 3093
3020 3020 3019 3019 3018 3017 3016 3016 3015 3014 3013 3013 3012 3012 3011 3011 3011 3011 3011 3011 3011 3012 3013 3014 3015 3016 3017 3018 3019 3019 3020 3021 3022 3023 3025 3026 3028 3030 3030 3031 3033 3035 3036 3038 3039 3039 3040 3039 3039 3041 3043 3044 3044 3045 3046 3047 3049 3051 3052 3053 3055 3056 3058 3058 3059 3063 3065 3066 3067 3068 3069 3070 3073 3076 3077 3077 3079 3081 3082 3083 3085 3086 3087 3089 3090
3017 3017 3017 3016 3016 3015 3014 3014 3013 3012 3011 3011 3010 3010 3009 3009 3008 3008 3008 3008 3008 3008 3009 3010 3011 3012 3013 3013 3014 3014 3015 3016 3016 3017 3018 3018 3020 3022 3023 3024 3027 3028 3030 3032 3033 3035 3035 3035 3035 3036 3037 3039 3040 3041 3041 3042 3044 3047 3048 3049 3050 3051 3052 3053 3055 3058 3060 3061 3062 3064 3065 3066 3068 3070 3072 3074 3076 3077 3078 3079 3081 3082 3083 3085 3086
3015 3014 3014 3014 3013 3013 3012 3012 3011 3010 3010 3009 3008 3008 3007 3007 3006 3006 3005 3005 3005 3005 3005 3006 3007 3008 3009 3009 3009 3010 3011 3011 3012 3012 3013 3013 3014 3016 3017 3018 3020 3022 3024 3025 3027 3028 3030 3031 3031 3031 3032 3034 3035 3036 3037 3038 3039 3041 3043 3043 3044 3046 3047 3048 3050 3053 3055 3056 3058 3060 3061 3061 3062 3064 3068 3070 3071 3072 3073 3075 3076 3078 3079 3081 3083
3012 3012 3011 3011 3011 3010 3010 3010 3009 3008 3008 3007 3006 3006 3005 3005 3004 3004 3003 3003 3002 3002 3002 3002 3003 3003 3004 3005 3005 3005 3006 3007 3008 3008 3008 3009 3010 3011 3011 3013 3014 3016 3018 3019 3020 3022 3023 3025 3026 3026 3027 3029 3030 3031 3032 3033 3034 3036 3037 3038 3039 3040 3042 3044 3045 3047 3050 3053 3053 3054 3056 3057 3057 3058 3061 3063 3065 3066 3068 3070 3073 3074 3075 3077 3079
3010 3009 3008 3008 3008 3007 3007 3007 3007 3006 3006 3005 3004 3004 3003 3002 3002 3002 3001 3001 3000 3000 3000 3000 3000 2999 3000 3000 3001 3001 3002 3002 3003 3003 3004 3004 3005 3006 3006 3007 3008 3010 3012 3014 3015 3016 3017 3018 3019 3020 3021 3023 3025 3026 3027 3028 3029 3030 3031 3032 3034 3035 3037 3038 3039 3041 3045 3048 3048 3049 3050 3051 3051 3051 3053 3057 3060 3062 3064 3066 3068 3069 3071 3073 3075
3007 3007 3006 3006 3005 3005 3004 3004 3004 3003 3003 3003 3002 3002 3001 3000 3000 2999 2999 2998 2998 2998 2997 2997 2997 2996 2996 2996 2996 2997 2997 2998 2998 2998 2999 2999 3000 3001 3001 3002 3003 3005 3006 3007 3009 3010 3011 3012 3013 3013 3014 3015 3017 3019 3021 3023 3024 3025 3026 3027 3029 3030 3031 3032 3033 3035 3037 3041 3043 3043 3043 3045 3046 3047 3049 3052 3055 3058 3060 3062 3064 3066 3067 3069 3070
3005 3005 3004 3004 3003 3003 3002 3001 3001 3001 3000 3000 3000 2999 2999 2998 2998 2997 2997 2996 2996 2995 2994 2994 2994 2993 2993 2992 2992 2992 2992 2992 2993 2993 2993 2994 2994 2995 2996 2997 2998 2999 3000 3001 3003 3004 3005 3006 3007 3008 3008 3008 3010 3012 3014 3017 3019 3020 3021 3022 3023 3024 3026 3026 3027 3028 3030 3034 3037 3038 3039 3040 3042 3043 3046 3048 3050 3052 3055 3057 3059 3061 3062 3063 3065
3003 3002 3001 3001 3000 3000 2999 2998 2997 2997 2996 2996 2996 2996 2996 2996 2995 2995 2994 2993 2993 2993 2992 2991 2991 2990 2989 2989 2989 2988 2988 2988 2987 2988 2988 2988 2989 2989 2990 2991 2991 2993 2994 2995 2997 2998 2999 3000 3002 3002 3003 3004 3005 3006 3008 3010 3012 3013 3015 3017 3018 3019 3020 3021 3022 3023 3025 3027 3030 3033 3034 3035 3036 3038 3041 3043 3044 3046 3047 3050 3052 3055 3056 3058 3059
3001 3000 2999 2997 2997 2996 2996 2996 2995 2994 2992 2991 2990 2990 2990 2991 2991 2991 2991 2990 2989 2989 2989 2989 2988 2986 2985 2985 2985 2984 2984 2984 2983 2983 2982 2982 2983 2983 2984 2985 2985 2986 2987 2989 2990 2991 2993 2994 2995 2996 2997 2999 3000 3001 3002 3003 3005 3006 3008 3009 3011 3013 3014 3014 3016 3018 3019 3020 3023 3026 3028 3029 3031 3033 3035 3037 3039 3040 3041 3043 3045 3048 3051 3052 3053
2999 2998 2997 2995 2994 2993 2992 2993 2993 2992 2990 2989 2987 2985 2983 2983 2983 2983 2984 2985 2985 2985 2984 2984 2984 2983 2981 2980 2979 2979 2979 2979 2978 2978 2978 2977 2977 2977 2978 2978 2979 2980 2980 2981 2983 2984 2986 2988 2989 2990 2992 2993 2994 2995 2996 2997 2999 3000 3002 3003 3004 3007 3008 3009 3009 3011 3013 3014 3016 3018 3021 3024 3025 3027 3029 3031 3033 3035 3037 3038 3039 3041 3043 3045 3047
2997 2996 2995 2993 2992 2990 2989 2989 2989 2989 2988 2987 2985 2984 2981 2979 2977 2975 2975 2975 2977 2979 2979 2979 2978 2977 2977 2976 2974 2974 2973 2973 2973 2972 2972 2972 2972 2972 2972 2972 2972 2973 2973 2974 2975 2976 2978 2980 2982 2983 2985 2986 2987 2989 2990 2991 2993 2994 2996 2997 2998 3000 3002 3003 3004 3005 3007 3008 3010 3012 3014 3017 3019 3021 3023 3025 3026 3029 3031 3032 3033 3033 3035 3038 3041
2996 2994 2992 2991 2989 2988 2986 2984 2984 2984 2984 2983 2983 2982 2980 2979 2977 2974 2972 2969 2968 2968 2970 2971 2972 2971 2971 2971 2970 2969 2968 2967 2967 2966 2966 2966 2966 2966 2966 2966 2966 2966 2966 2967 2968 2969 2970 2972 2974 2976 2978 2979 2980 2982 2983 2984 2986 2988 2989 2990 2992 2993 2994 2996 2998 3000 3001 3002 3003 3005 3006 3009 3012 3014 3016 3018 3020 3022 3025 3026 3027 3027 3028 3030 3033
2995 2993 2991 2989 2986 2985 2983 2981 2979 2978 2978 2978 2978 2977 2977 2976 2975 2973 2971 2969 2966 2963 2961 2961 2963 2964 2965 2964 2964 2964 2963 2962 2961 2960 2959 2959 2959 2959 2960 2960 2960 2960 2960 2961 2961 2962 2963 2964 2966 2968 2970 2972 2973 2975 2976 2978 2979 2980 2982 2984 2986 2987 2986 2988 2991 2993 2995 2996 2997 2999 3000 3002 3004 3006 3009 3011 3013 3015 3017 3019 3021 3021 3022 3023 3026
2993 2992 2991 2988 2985 2982 2981 2979 2976 2973 2972 2972 2972 2971 2971 2970 2970 2968 2967 2966 2964 2962 2959 2956 2955 2956 2957 2958 2958 2957 2957 2957 2956 2955 2954 2953 2952 2952 2953 2953 2954 2954 2955 2955 2954 2955 2956 2957 2958 2959 2961 2963 2965 2967 2969 2971 2971 2972 2975 2977 2979 2980 2979 2981 2984 2985 2988 2989 2990 2992 2994 2996 2998 2999 3001 3004 3006 3008 3010 3012 3014 3015 3016 3016 3019
2991 2990 2987 2986 2984 2982 2979 2978 2975 2972 2968 2967 2967 2966 2965 2964 2964 2963 2962 2961 2959 2958 2956 2954 2952 2950 2949 2950 2951 2951 2951 2950 2950 2949 2948 2947 2946 2946 2945 2945 2946 2947 2948 2948 2948 2948 2949 2950 2951 2951 2953 2954 2956 2959 2961 2963 2964 2965 2967 2969 2971 2973 2972 2975 2977 2978 2980 2981 2983 2985 2988 2990 2992 2993 2994 2996 2998 3001 3003 3005 3007 3008 3010 3011 3013
2988 2986 2983 2981 2980 2979 2977 2975 2973 2970 2966 2963 2962 2961 2959 2958 2958 2958 2957 2955 2954 2953 2951 2949 2948 2946 2944 2943 2943 2943 2944 2944 2943 2943 2942 2942 2941 2940 2939 2938 2939 2939 2940 2941 2941 2942 2943 2943 2944 2944 2945 2946 2948 2950 2952 2954 2955 2957 2959 2961 2964 2965 2965 2967 2970 2970 2972 2974 2976 2978 2980 2984 2986 2987 2988 2990 2992 2994 2996 2998 2999 3001 3003 3004 3006
2985 2983 2980 2977 2975 2974 2974 2972 2970 2968 2964 2961 2959 2957 2954 2952 2951 2951 2951 2950 2948 2947 2946 2944 2942 2940 2939 2937 2936 2935 2935 2935 2936 2937 2936 2935 2935 2934 2933 2932 2932 2931 2932 2933 2934 2935 2936 2937 2937 2938 2938 2939 2940 2942 2943 2945 2946 2949 2951 2953 2955 2956 2957 2960 2962 2963 2965 2967 2969 2970 2973 2976 2979 2980 2982 2984 2985 2987 2989 2990 2992 2994 2996 2998 3000
2984 2982 2979 2976 2973 2971 2970 2969 2967 2966 2962 2958 2955 2953 2950 2947 2945 2944 2944 2943 2941 2940 2939 2938 2936 2935 2933 2931 2930 2929 2928 2927 2927 2929 2929 2929 2927 2927 2927 2926 2925 2925 2925 2925 2926 2927 2928 2929 2930 2931 2931 2932 2933 2934 2935 2937 2938 2941 2943 2945 2946 2948 2949 2952 2953 2955 2958 2960 2962 2963 2966 2969 2971 2972 2974 2977 2978 2981 2982 2984 2985 2987 2989 2991 2993
2983 2980 2978 2975 2972 2969 2966 2964 2963 2961 2958 2954 2951 2948 2945 2942 2940 2938 2936 2935 2934 2932 2931 2930 2929 2928 2926 2924 2923 2922 2921 2920 2919 2919 2920 2921 2920 2919 2919 2919 2919 2918 2918 2918 2918 2919 2920 2922 2923 2923 2924 2925 2926 2927 2928 2929 2931 2933 2934 2936 2938 2939 2941 2943 2945 2948 2950 2952 2953 2956 2959 2962 2963 2964 2967 2969 2971 2973 2975 2977 2979 2981 2982 2984 2986
2980 2977 2974 2971 2968 2965 2962 2960 2957 2955 2952 2949 2945 2943 2940 2937 2934 2932 2930 2928 2926 2925 2924 2922 2921 2920 2919 2917 2916 2915 2914 2913 2912 2911 2911 2911 2912 2911 2911 2911 2911 2912 2912 2912 2912 2912 2912 2914 2915 2916 2916 2917 2918 2919 2921 2922 2924 2925 2926 2928 2929 2930 2932 2934 2937 2939 2942 2943 2945 2947 2951 2954 2955 2955 2958 2961 2963 2965 2967 2969 2971 2974 2976 2978 2979
2976 2973 2969 2966 2963 2960 2957 2955 2952 2949 2947 2944 2941 2938 2935 2932 2930 2927 2925 2923 2920 2919 2918 2916 2914 2912 2911 2910 2908 2907 2906 2905 2905 2904 2902 2902 2903 2903 2903 2903 2903 2904 2904 2905 2905 2905 2905 2905 2906 2907 2908 2910 2911 2912 2913 2915 2916 2917 2919 2920 2922 2923 2924 2926 2928 2931 2933 2935 2937 2939 2943 2945 2946 2947 2949 2953 2956 2958 2959 2961 2963 2966 2969 2970 2972
2971 2968 2964 2961 2958 2954 2952 2949 2947 2945 2942 2939 2936 2934 2931 2928 2925 2923 2921 2918 2915 2913 2912 2911 2909 2907 2905 2903 2901 2900 2898 2897 2897 2896 2895 2894 2894 2894 2894 2894 2895 2895 2896 2896 2897 2897 2898 2898 2898 2899 2900 2902 2903 2905 2906 2907 2908 2909 2911 2912 2914 2915 2917 2918 2920 2922 2924 2926 2928 2931 2934 2937 2938 2939 2942 2945 2947 2950 2951 2953 2955 2958 2960 2961 2963
2966 2962 2959 2956 2953 2951 2948 2945 2943 2940 2937 2934 2932 2929 2927 2924 2921 2919 2916 2914 2911 2908 2906 2905 2904 2902 2900 2898 2896 2893 2891 2889 2888 2887 2887 2886 2886 2886 2885 2885 2886 2886 2887 2888 2889 2889 2890 2891 2891 2891 2892 2894 2895 2897 2898 2899 2900 2901 2903 2904 2906 2908 2909 2911 2913 2915 2916 2918 2920 2922 2925 2928 2930 2931 2934 2937 2939 2941 2943 2945 2947 2950 2951 2952 2955
2961 2957 2954 2952 2949 2947 2944 2941 2938 2935 2932 2930 2927 2925 2922 2920 2917 2915 2912 2909 2906 2903 2901 2899 2897 2896 2895 2893 2890 2888 2885 2883 2881 2879 2878 2877 2876 2877 2877 2877 2877 2877 2878 2879 2880 2881 2882 2883 2884 2885 2885 2886 2887 2889 2890 2891 2892 2894 2895 2897 2898 2900 2901 2903 2905 2907 2909 2911 2912 2914 2917 2919 2921 2924 2926 2929 2931 2933 2934 2936 2939 2942 2942 2943 2946
2956 2953 2950 2948 2945 2942 2939 2936 2933 2930 2927 2925 2922 2920 2917 2914 2912 2910 2907 2904 2901 2898 2895 2893 2891 2889 2888 2886 2884 2881 2879 2877 2874 2872 2870 2868 2867 2868 2868 2869 2869 2868 2869 2869 2871 2872 2874 2875 2876 2877 2878 2879 2880 2881 2882 2883 2885 2886 2888 2889 2890 2892 2894 2895 2897 2899 2901 2903 2905 2907 2909 2911 2913 2915 2918 2920 2922 2924 2926 2928 2931 2933 2934 2935 2937
2951 2949 2946 2943 2940 2936 2933 2930 2928 2925 2922 2920 2917 2914 2911 2909 2906 2903 2900 2898 2895 2892 2889 2886 2884 2882 2881 2878 2876 2874 2871 2869 2867 2865 2862 2860 2859 2859 2859 2860 2860 2861 2861 2861 2862 2863 2865 2866 2867 2869 2871 2872 2873 2874 2874 2875 2876 2878 2879 2881 2882 2884 2886 2887 2889 2891 2893 2896 2898 2899 2901 2903 2905 2907 2910 2912 2914 2916 2917 2920 2923 2924 2926 2927 2929
2947 2944 2941 2937 2934 2931 2928 2925 2923 2920 2917 2914 2911 2908 2905 2902 2899 2896 2893 2891 2888 2885 2882 2879 2877 2874 2873 2870 2868 2865 2863 2861 2859 2857 2855 2853 2852 2851 2850 2851 2852 2852 2853 2853 2854 2855 2856 2858 2859 2861 2863 2864 2865 2866 2867 2867 2868 2870 2871 2872 2874 2876 2878 2879 2881 2883 2886 2888 2890 2891 2893 2895 2897 2899 2902 2904 2906 2908 2910 2911 2914 2915 2917 2919 2920
2943 2939 2936 2932 2929 2925 2923 2920 2917 2914 2911 2908 2905 2901 2898 2895 2892 2889 2887 2884 2881 2878 2874 2871 2869 2866 2864 2862 2859 2856 2854 2852 2850 2848 2847 2846 2845 2843 2842 2842 2843 2844 2844 2845 2846 2847 2848 2849 2851 2852 2854 2856 2858 2859 2859 2860 2861 2862 2863 2864 2866 2868 2870 2871 2873 2875 2878 2880 2881 2883 2885 2887 2889 2891 2893 2895 2898 2900 2901 2903 2905 2906 2907 2909 2912
2938 2935 2931 2927 2923 2920 2917 2915 2912 2909 2906 2902 2899 2895 2892 2888 2885 2882 2879 2876 2872 2869 2866 2863 2860 2858 2855 2853 2850 2848 2846 2844 2841 2840 2838 2838 2837 2835 2835 2835 2835 2836 2836 2838 2839 2840 2841 2842 2843 2844 2846 2848 2850 2851 2852 2853 2853 2854 2855 2856 2858 2860 2861 2863 2865 2867 2869 2871 2873 2875 2877 2879 2881 2883 2885 2887 2889 2891 2893 2895 2896 2897 2898 2900 2903
2932 2929 2925 2922 2918 2914 2911 2908 2905 2902 2899 2896 2892 2888 2884 2881 2878 2874 2871 2867 2863 2860 2857 2854 2851 2849 2847 2845 2842 2840 2838 2836 2834 2832 2831 2830 2829 2828 2828 2828 2828 2828 2829 2830 2831 2832 2833 2835 2835 2837 2838 2840 2842 2843 2844 2845 2846 2847 2848 2848 2850 2852 2853 2855 2857 2859 2861 2863 2865 2867 2868 2870 2873 2875 2877 2879 2881 2883 2885 2886 2887 2888 2890 2892 2894
2927 2923 2920 2916 2913 2909 2905 2901 2898 2894 2891 2888 2884 2879 2875 2872 2869 2866 2862 2858 2855 2851 2849 2846 2843 2841 2839 2837 2834 2832 2831 2829 2828 2826 2824 2822 2822 2822 2821 2821 2821 2821 2822 2823 2824 2825 2826 2828 2829 2830 2831 2833 2834 2835 2836 2837 2838 2839 2840 2841 2843 2844 2846 2848 2849 2851 2853 2854 2856 2858 2860 2862 2864 2866 2868 2871 2873 2875 2876 2877 2878 2880 2882 2883 2885
2922 2918 2915 2911 2908 2904 2900 2895 2891 2887 2883 2880 2875 2871 2867 2863 2860 2857 2853 2850 2848 2844 2841 2839 2836 2833 2831 2829 2828 2826 2824 2823 2821 2819 2817 2816 2816 2815 2815 2814 2814 2815 2815 2816 2817 2818 2820 2821 2822 2824 2825 2826 2827 2828 2829 2829 2831 2832 2832 2834 2836 2837 2839 2840 2842 2843 2845 2846 2848 2850 2851 2853 2855 2857 2860 2862 2864 2865 2866 2868 2870 2872 2874 2875 2877
2916 2912 2909 2905 2902 2898 2894 2889 2884 2880 2876 2872 2868 2863 2859 2855 2852 2849 2846 2843 2840 2837 2835 2832 2829 2827 2825 2822 2821 2819 2817 2816 2814 2812 2811 2810 2810 2809 2808 2808 2808 2808 2810 2811 2812 2813 2814 2815 2816 2817 2819 2820 2821 2822 2823 2823 2824 2825 2826 2827 2829 2830 2832 2833 2835 2836 2838 2839 2841 2842 2844 2845 2847 2849 2851 2853 2855 2856 2857 2859 2862 2864 2865 2866 2869
2911 2907 2903 2899 2895 2891 2887 2882 2878 2873 2869 2865 2861 2856 2853 2849 2846 2843 2839 2836 2834 2831 2828 2826 2823 2821 2819 2817 2815 2813 2811 2809 2807 2806 2805 2804 2804 2803 2803 2803 2802 2803 2804 2806 2807 2808 2809 2810 2811 2812 2813 2813 2815 2816 2817 2817 2818 2819 2820 2821 2822 2823 2825 2826 2828 2829 2831 2832 2834 2835 2837 2838 2839 2840 2842 2844 2846 2847 2849 2852 2854 2855 2856 2859 2862
2905 2901 2897 2893 2888 2884 2880 2875 2871 2867 2863 2859 2854 2850 2847 2843 2840 2837 2834 2831 2828 2826 2823 2821 2818 2816 2814 2812 2809 2807 2805 2804 2802 2801 2800 2799 2799 2798 2798 2798 2798 2799 2800 2801 2802 2803 2804 2805 2806 2807 2807 2808 2808 2809 2810 2811 2812 2813 2814 2815 2816 2817 2819 2820 2821 2823 2824 2826 2828 2829 2830 2831 2831 2832 2834 2836 2838 2839 2841 2844 2846 2847 2849 2852 2855
2899 2895 2890 2886 2881 2878 2874 2870 2866 2861 2857 2853 2849 2845 2842 2838 2835 2832 2829 2826 2824 2821 2819 2817 2814 2812 2810 2807 2805 2803 2801 2799 2798 2797 2796 2796 2795 2794 2794 2794 2795 2795 2796 2797 2798 2799 2799 2800 2801 2802 2802 2803 2803 2803 2804 2805 2806 2807 2808 2809 2810 2811 2813 2814 2815 2816 2818 2819 2821 2822 2823 2824 2824 2825 2826 2828 2830 2832 2834 2836 2838 2840 2843 2845 2846
2894 2890 2885 2880 2875 2872 2868 2864 2860 2856 2852 2848 2844 2840 2837 2834 2831 2828 2825 2822 2820 2817 2815 2813 2811 2808 2806 2804 2802 2800 2798 2796 2795 2794 2793 2793 2793 2792 2791 2791 2791 2792 2792 2793 2794 2794 2795 2796 2796 2797 2797 2797 2798 2798 2799 2799 2800 2801 2802 2803 2803 2805 2806 2808 2809 2810 2811 2813 2815 2815 2816 2816 2817 2818 2820 2821 2823 2825 2826 2829 2832 2834 2835 2836 2838
2888 2884 2880 2875 2870 2866 2863 2859 2855 2851 2847 2843 2839 2836 2833 2830 2827 2824 2821 2819 2816 2814 2812 2810 2808 2805 2803 2801 2799 2797 2796 2794 2792 2791 2791 2790 2790 2789 2789 2788 2788 2788 2788 2789 2789 2790 2790 2791 2792 2792 2792 2793 2793 2793 2794 2794 2795 2796 2796 2797 2798 2798 2800 2801 2803 2804 2805 2807 2808 2809 2809 2809 2810 2812 2814 2815 2818 2819 2820 2823 2826 2826 2827 2830 2832
2883 2879 2875 2871 2866 2862 2858 2855 2851 2847 2843 2839 2835 2831 2829 2826 2823 2821 2818 2815 2813 2811 2809 2807 2805 2803 2801 2799 2797 2795 2793 2792 2790 2789 2788 2788 2787 2786 2786 2785 2785 2785 2785 2785 2785 2786 2786 2786 2787 2788 2788 2788 2789 2789 2789 2790 2790 2791 2792 2792 2793 2793 2794 2795 2797 2798 2799 2801 2802 2803 2803 2804 2805 2807 2808 2810 2812 2813 2815 2818 2819 2819 2821 2824 2826
2878 2875 2871 2866 2862 2857 2854 2850 2847 2844 2840 2836 2832 2828 2825 2823 2820 2817 2815 2812 2810 2808 2806 2804 2802 2800 2798 2797 2795 2793 2791 2790 2788 2787 2786 2785 2784 2783 2783 2782 2782 2782 2781 2782 2782 2782 2782 2782 2783 2783 2784 2784 2785 2785 2785 2786 2786 2786 2787 2788 2788 2788 2789 2789 2791 2792 2793 2795 2796 2797 2798 2799 2800 2802 2803 2805 2807 2807 2809 2812 2812 2813 2816 2819 2820
2874 2870 2866 2862 2857 2853 2850 2846 2843 2840 2836 2833 2829 2825 2822 2819 2817 2814 2812 2809 2807 2805 2803 2801 2799 2798 2796 2794 2792 2791 2789 2788 2786 2785 2783 2782 2781 2781 2780 2780 2779 2779 2778 2778 2778 2778 2778 2778 2779 2779 2780 2780 2781 2781 2781 2782 2782 2782 2783 2784 2784 2784 2784 2784 2785 2787 2788 2790 2791 2792 2793 2794 2795 2797 2798 2800 2801 2802 2803 2805 2806 2808 2812 2814 2815
2870 2865 2861 2857 2853 2849 2846 2842 2839 2836 2833 2829 2826 2823 2819 2816 2814 2811 2809 2807 2804 2802 2800 2799 2797 2795 2793 2791 2790 2788 2787 2785 2784 2783 2781 2780 2779 2778 2777 2777 2776 2776 2775 2775 2775 2775 2775 2775 2775 2776 2776 2777 2777 2777 2777 2778 2778 2779 2779 2780 2780 2780 2780 2779 2780 2783 2784 2785 2786 2788 2789 2790 2791 2792 2793 2795 2796 2797 2798 2799 2800 2803 2807 2809 2810
2866 2862 2858 2854 2850 2846 2842 2839 2836 2832 2829 2826 2823 2820 2817 2814 2811 2808 2806 2804 2802 2800 2798 2796 2794 2792 2790 2789 2787 2785 2784 2783 2782 2780 2779 2778 2777 2776 2775 2775 2774 2773 2773 2772 2772 2772 2772 2771 2772 2772 2772 2773 2773 2773 2774 2774 2775 2775 2775 2776 2776 2777 2776 2776 2777 2779 2781 2781 2782 2783 2784 2785 2786 2787 2788 2790 2791 2792 2793 2794 2795 2798 2802 2804 2805
2862 2858 2854 2850 2847 2843 2839 2836 2833 2829 2826 2823 2820 2817 2814 2811 2809 2806 2803 2801 2799 2797 2795 2793 2792 2790 2788 2786 2784 2783 2781 2780 2779 2778 2777 2776 2775 2774 2773 2773 2772 2771 2770 2770 2769 2769 2769 2768 2768 2768 2769 2769 2770 2770 2770 2771 2771 2770 2771 2772 2773 2773 2773 2773 2773 2775 2777 2777 2778 2779 2780 2781 2782 2783 2784 2786 2787 2789 2790 2790 2791 2794 2796 2799 2801
2858 2854 2851 2847 2844 2840 2836 2833 2830 2826 2823 2820 2817 2814 2811 2809 2806 2804 2801 2798 2796 2794 2793 2791 2789 2787 2785 2784 2782 2781 2779 2777 2776 2775 2774 2774 2772 2771 2770 2770 2769 2769 2768 2767 2767 2767 2766 2766 2765 2765 2765 2765 2766 2766 2767 2767 2767 2767 2767 2768 2769 2769 2770 2770 2770 2771 2772 2774 2775 2776 2777 2778 2779 2780 2780 2782 2784 2785 2786 2787 2788 2789 2791 2794 2796
2854 2850 2847 2844 2840 2837 2833 2830 2826 2823 2820 2817 2814 2811 2809 2806 2804 2801 2799 2796 2794 2791 2790 2788 2787 2785 2783 2781 2780 2778 2777 2775 2774 2773 2772 2771 2770 2769 2768 2767 2766 2766 2766 2765 2764 2764 2764 2763 2763 2763 2763 2762 2763 2763 2763 2763 2763 2763 2763 2763 2764 2765 2766 2767 2767 2767 2768 2770 2771 2773 2774 2775 2776 2776 2777 2778 2780 2781 2783 2784 2785 2786 2787 2789 2791